Theta_e
310 310 309 309 309 309 309 309 309 309 309 309 309 309 309 309 309 310 310 308 308 307 312 313 311 312 315 317 317 319 321 320 321 320 321 321 321 323 322 321 322 322 324 324 323
311 310 310 309 309 309 309 309 309 309 309 309 309 309 309 308 309 311 309 304 303 304 314 313 313 313 316 317 317 318 319 319 320 320 320 320 320 320 320 321 321 321 321 321 322
311 311 310 309 309 309 309 309 309 309 309 309 309 308 308 308 315 318 315 303 303 305 313 314 313 314 315 316 317 318 318 319 320 319 319 319 319 319 319 320 320 320 321 321 321
310 310 310 309 309 309 309 310 309 309 309 309 309 308 307 311 320 319 315 303 306 313 313 313 314 314 316 316 317 317 317 318 318 318 318 318 318 319 319 319 319 320 319 320 321
309 309 310 309 309 309 309 310 309 309 309 309 308 307 310 314 312 321 311 308 314 314 314 315 316 316 316 317 317 317 317 317 317 317 317 317 317 317 318 318 318 319 319 320 320
308 308 310 310 309 307 309 310 310 309 309 309 308 305 313 313 311 317 312 314 315 316 314 314 315 315 315 315 316 316 315 316 316 316 317 316 317 317 317 317 318 318 319 319 320
308 308 307 310 309 308 307 309 309 309 309 309 308 310 312 309 312 318 315 314 315 312 314 318 316 316 316 315 315 315 316 316 316 317 317 317 317 318 318 318 317 318 318 319 319
310 308 307 307 309 309 307 305 307 309 310 309 306 312 313 306 311 318 314 312 312 315 317 317 316 316 316 316 315 316 316 316 317 316 315 315 316 317 317 317 317 318 318 318 319
309 308 307 306 309 310 306 307 311 310 311 310 312 315 316 314 313 315 316 313 313 313 314 315 316 316 315 316 316 316 315 315 315 315 315 316 316 316 317 317 318 318 318 318 319
309 308 307 305 307 309 306 312 312 312 312 312 313 318 315 313 315 316 317 314 315 316 316 317 317 316 316 316 315 315 315 315 316 316 316 317 317 317 318 318 318 318 318 318 319
306 307 306 305 307 308 309 314 319 320 317 319 318 317 317 317 318 317 316 315 316 317 317 316 317 317 317 316 316 315 315 316 317 317 317 318 318 318 318 319 319 318 319 319 319
301 305 305 305 308 306 309 316 318 316 318 318 317 317 316 316 319 317 315 316 316 316 316 316 316 316 316 316 315 315 316 317 317 317 317 318 319 319 319 319 318 318 319 319 319
300 304 304 306 309 310 311 316 315 315 320 317 317 317 317 317 318 318 317 316 316 316 316 317 316 315 315 315 315 316 317 317 317 318 318 320 320 320 319 319 319 319 319 318 319
301 304 304 306 311 310 313 314 314 314 321 320 319 318 317 318 318 317 315 315 315 316 316 317 317 316 316 316 316 318 317 316 317 319 321 320 321 320 319 319 319 319 319 319 319
303 304 304 305 313 313 314 311 314 316 326 321 319 316 316 318 318 318 315 315 316 317 317 318 316 316 317 317 316 317 318 318 319 320 321 320 321 320 319 319 318 318 318 318 318
302 304 305 310 311 311 310 312 316 323 328 318 318 318 317 318 315 317 318 317 316 316 317 317 317 316 317 317 316 318 318 319 320 321 323 320 320 320 318 317 317 318 318 319 321
304 307 308 310 312 309 312 317 321 319 320 319 318 317 317 317 317 316 317 318 318 318 319 318 318 317 317 318 319 319 321 322 322 321 322 317 316 317 317 318 319 319 320 320 321
307 310 311 311 312 311 316 319 319 320 320 316 316 316 318 315 315 315 316 316 317 317 317 319 320 318 319 319 319 320 321 321 323 319 317 315 315 316 317 318 319 320 320 320 321
309 311 313 311 312 314 319 319 319 319 316 317 317 318 318 318 318 316 316 316 316 317 318 320 320 318 319 318 318 320 320 319 319 317 317 315 314 316 319 319 318 319 319 319 320
309 312 312 311 313 316 317 315 318 316 315 316 317 316 320 318 318 317 317 317 316 316 316 317 318 316 317 317 318 316 317 319 318 321 317 313 313 314 317 318 317 317 317 318 318
312 318 311 312 314 318 319 318 317 316 316 315 316 317 317 316 317 318 318 316 315 316 316 316 316 316 315 315 315 318 317 317 318 320 320 317 314 316 315 315 318 317 315 317 318
313 318 311 311 322 317 318 316 312 317 317 317 317 315 316 317 318 317 318 318 315 315 316 316 317 318 315 314 314 314 314 316 321 318 319 319 318 315 316 317 318 316 316 317 318
314 314 312 313 323 319 317 316 315 317 317 317 318 318 317 316 315 317 317 315 314 314 315 317 316 319 316 315 315 315 314 314 316 317 320 320 317 314 314 315 316 317 317 318 317
313 317 315 314 313 316 317 318 317 315 316 315 316 316 316 317 316 315 314 313 312 313 317 317 317 317 317 314 315 315 314 314 316 319 317 316 315 314 315 316 317 318 318 317 316
312 314 311 316 315 314 314 315 316 316 315 315 316 314 315 318 316 317 315 312 312 313 314 315 319 317 315 314 314 314 314 313 313 314 316 315 315 314 315 317 317 317 317 316 316
313 312 312 313 312 312 311 315 315 314 313 315 315 314 315 316 316 317 315 315 314 312 312 315 315 314 315 314 314 314 312 312 312 313 314 314 315 314 316 316 316 316 316 315 314
307 308 311 311 311 311 312 311 313 310 312 313 312 312 312 312 312 313 313 312 314 314 313 314 315 316 316 312 312 313 315 314 314 314 314 316 316 316 316 315 315 314 314 313 313
Wind_Speed
19 18 17 16 15 13 14 14 13 13 13 12 11 10 10 12 15 13 15 8 11 6 8 11 16 15 10 8 7 5 10 14 17 13 14 7 10 6 4 11 10 10 11 10 12
20 19 17 16 15 13 12 12 13 12 13 11 10 10 10 10 14 20 18 14 10 17 11 14 16 17 12 11 7 11 12 16 7 9 9 11 11 12 11 13 13 13 15 15 11
22 20 18 17 15 14 12 11 11 11 11 10 10 9 8 8 9 2 6 12 16 21 10 7 14 15 11 9 10 11 13 10 10 14 14 15 13 13 13 15 15 15 13 13 15
22 22 20 18 15 14 12 11 9 10 10 10 9 8 6 5 2 7 4 15 21 14 14 12 13 12 11 11 12 9 13 11 12 12 13 17 14 14 13 15 14 15 15 14 15
27 24 24 21 17 14 13 11 9 7 8 8 7 6 4 7 1 5 15 16 15 12 13 12 13 10 11 11 10 13 8 9 12 12 12 14 16 16 16 11 14 12 12 13 14
31 32 27 23 22 16 13 12 10 8 5 7 6 2 6 6 3 6 13 14 11 11 10 8 6 6 6 8 13 7 6 9 9 11 11 12 17 14 8 8 12 12 12 12 13
31 33 35 27 24 20 14 13 11 9 6 5 5 2 7 5 2 8 12 7 11 8 9 5 4 8 10 7 5 6 9 10 12 12 10 8 16 18 12 10 9 11 11 13 13
31 32 34 33 27 22 17 13 13 10 6 5 4 3 5 2 3 10 10 7 10 7 4 5 3 3 5 6 6 10 7 11 9 6 6 6 13 6 2 8 10 13 12 12 14
30 32 33 35 34 24 16 9 9 7 7 6 4 5 2 3 7 11 12 8 9 6 4 5 5 3 7 11 9 8 10 8 4 8 7 10 10 4 8 15 14 13 14 13 12
29 32 34 35 38 25 10 2 3 8 6 5 5 5 5 6 9 10 11 8 9 10 7 8 7 9 9 9 10 6 10 8 10 4 9 13 16 15 12 13 14 13 13 12 13
31 32 34 36 40 27 3 3 4 6 8 8 0 3 5 4 6 9 12 11 8 11 11 9 9 10 10 8 7 6 8 11 9 10 13 15 16 16 16 16 16 15 14 14 16
32 33 35 37 35 17 8 5 3 4 7 10 10 9 8 2 7 10 14 13 10 13 9 8 12 7 4 6 9 11 12 12 10 9 10 16 18 18 19 19 17 16 16 18 18
34 34 36 39 21 1 7 7 1 5 5 2 4 4 6 11 5 13 17 15 12 13 12 13 6 6 6 9 10 11 12 11 13 14 14 19 18 17 13 11 13 16 18 18 19
35 36 40 39 2 3 5 3 4 4 5 5 4 4 7 7 6 8 14 10 7 10 9 8 9 9 8 8 9 11 5 8 13 14 14 14 17 17 16 15 15 15 16 15 18
38 41 39 17 10 4 3 5 4 4 4 4 5 7 7 8 6 6 13 9 10 7 7 5 6 8 9 8 4 12 5 12 15 17 19 19 16 15 16 15 14 15 14 18 18
44 43 24 1 5 5 6 7 4 6 3 4 5 5 8 7 3 6 9 8 3 11 12 14 3 7 8 2 6 6 13 17 17 14 14 15 11 7 11 16 17 17 17 14 14
50 21 5 2 3 4 6 4 5 4 2 3 4 4 5 6 6 5 9 9 10 8 13 14 13 11 6 13 9 10 12 11 11 11 12 7 11 12 14 10 15 10 10 10 9
37 11 7 4 7 7 4 4 4 2 3 2 1 3 4 2 5 2 4 8 5 7 9 8 10 4 3 9 11 4 7 7 9 10 15 18 7 2 11 2 5 5 8 10 11
22 6 6 11 5 4 5 5 3 2 4 5 4 7 6 4 3 4 3 6 2 5 7 4 6 4 1 2 4 6 9 6 10 15 13 10 10 9 6 3 4 9 9 10 11
12 4 10 12 6 6 4 3 2 3 5 3 6 3 6 7 4 3 4 6 5 6 4 4 11 5 5 4 4 8 4 5 6 4 7 8 15 10 4 8 10 10 14 13 13
4 3 10 8 4 5 3 3 1 2 7 5 5 9 6 5 10 9 7 6 8 7 7 5 6 4 4 10 9 7 9 6 4 4 4 8 7 6 11 13 7 12 15 14 13
6 2 12 8 4 1 2 3 2 3 4 7 6 6 9 10 14 14 14 9 5 7 10 6 5 9 11 3 5 9 10 10 8 9 8 12 17 6 10 10 10 20 16 15 13
6 3 7 8 3 1 2 4 4 6 5 5 5 5 6 9 6 11 12 8 8 8 5 6 6 8 9 8 7 8 9 9 11 10 14 12 13 6 11 17 16 16 14 13 15
4 2 3 4 3 5 6 5 5 1 6 7 9 7 9 10 12 6 6 7 5 7 6 5 12 11 10 12 3 9 11 12 14 13 16 17 23 19 17 18 18 16 13 15 15
3 3 3 3 2 7 5 5 9 6 3 5 5 6 6 5 10 14 15 12 7 8 10 6 14 15 16 16 15 16 17 17 20 20 20 21 23 21 20 15 15 16 18 19 20
4 3 1 1 4 5 0 1 7 3 3 3 5 9 4 7 10 9 8 9 9 6 10 7 11 13 15 15 16 20 21 21 20 20 22 22 23 20 12 15 19 19 19 20 22
2 1 4 3 2 4 1 3 4 6 7 8 4 6 9 12 9 13 12 12 13 11 8 10 7 9 13 8 10 14 16 11 11 12 14 16 15 17 19 19 19 19 22 25 26
Wind_Direction
348 343 340 335 330 324 317 312 307 304 300 298 299 299 299 297 298 281 252 231 212 142 145 150 175 186 190 191 207 228 234 236 224 229 240 252 253 172 288 276 271 276 284 302 317
347 344 340 336 332 325 317 311 307 303 300 297 298 295 296 295 292 265 248 226 199 179 173 171 173 175 185 196 190 211 225 235 245 235 240 239 257 278 282 268 266 261 271 274 285
350 346 343 338 333 326 321 313 304 300 295 295 296 295 298 308 268 178 224 194 192 173 180 179 167 182 175 183 186 207 240 230 235 246 256 266 266 263 265 264 270 277 283 288 285
358 355 348 343 334 324 316 311 307 302 298 296 297 299 301 280 1 2 227 165 150 164 166 160 172 182 186 193 184 211 232 243 247 254 250 261 272 266 258 265 273 275 273 274 275
10 359 356 346 338 325 315 305 301 301 297 297 301 303 300 232 305 31 137 146 155 163 173 176 181 190 197 190 181 227 211 229 245 251 255 267 262 268 269 275 272 274 274 270 266
9 8 358 351 344 328 315 304 296 293 300 292 293 330 269 243 80 133 146 156 170 179 176 191 193 218 160 176 210 184 223 228 243 251 250 257 269 259 249 244 264 273 275 273 270
1 2 1 353 349 334 314 303 293 282 277 272 258 273 260 325 116 160 163 174 171 181 169 145 151 204 159 166 166 180 228 222 242 248 258 293 263 251 246 262 267 270 275 278 267
352 354 355 354 349 341 317 299 287 265 233 218 189 257 269 176 171 173 181 160 167 155 148 148 188 158 241 102 183 220 240 245 162 228 217 239 267 263 330 276 269 278 279 276 274
347 349 349 350 348 337 328 298 292 225 189 182 179 238 169 172 206 189 186 173 168 177 159 152 227 223 187 213 210 200 253 218 245 197 259 234 283 292 269 288 282 279 279 276 274
344 344 344 346 347 336 339 72 72 108 144 178 253 244 216 167 150 163 182 173 173 159 165 205 211 219 217 220 239 222 232 212 254 224 249 270 271 274 276 283 283 286 280 276 277
340 342 341 342 343 323 297 166 201 190 214 260 167 322 152 133 159 182 174 182 178 201 209 207 227 219 221 226 290 259 259 261 269 272 274 274 279 282 283 283 279 276 273 271 273
339 340 338 338 339 330 177 236 360 359 291 219 261 250 254 156 171 160 179 191 199 211 205 201 231 256 238 223 230 241 251 258 269 260 272 280 279 285 279 274 276 274 276 278 277
338 338 337 334 332 11 229 249 275 328 265 170 189 214 194 202 195 166 191 206 207 217 210 251 87 95 180 198 227 233 257 277 288 303 276 265 281 277 269 250 251 266 273 273 272
338 336 335 329 315 314 237 209 269 292 264 125 167 136 172 187 213 190 205 196 208 226 210 245 231 235 239 240 236 265 277 270 286 290 290 325 290 282 283 283 282 284 290 278 287
338 334 330 320 294 243 64 322 300 208 210 119 104 141 163 202 117 177 197 213 239 192 224 119 174 208 241 265 252 276 326 289 294 288 293 283 279 290 293 286 301 324 319 308 300
339 337 322 28 220 258 305 311 216 230 125 111 125 145 165 193 129 125 187 224 295 244 229 270 262 276 290 335 267 306 275 277 275 271 269 276 278 295 310 332 317 321 305 321 352
342 350 355 184 42 323 310 226 224 280 173 107 103 169 185 157 199 238 191 201 229 224 239 241 239 240 250 259 210 249 269 275 271 240 263 0 302 282 320 358 325 319 330 329 329
349 15 25 352 300 306 261 238 253 67 26 31 267 158 176 162 106 322 238 231 216 262 279 282 273 184 148 255 285 266 301 276 286 286 306 315 265 270 339 204 339 338 335 341 338
353 350 25 354 9 300 255 243 20 26 347 316 257 236 171 159 259 314 264 292 307 218 242 257 247 115 179 222 266 160 246 357 293 271 261 257 250 264 97 204 329 333 334 338 331
336 316 26 339 322 279 255 357 139 37 324 282 277 302 242 191 238 182 237 297 296 263 246 251 270 172 132 220 208 267 66 242 222 281 284 297 305 291 309 353 329 329 336 329 327
316 250 9 350 299 252 289 52 193 39 354 318 314 285 254 235 230 207 230 223 232 232 247 257 244 168 206 211 257 181 221 219 280 243 281 298 293 53 312 299 295 297 329 315 321
318 239 359 349 253 300 303 353 1 291 309 288 272 277 286 279 255 247 242 245 280 297 250 230 274 265 265 75 297 277 268 240 226 239 228 281 284 327 346 334 289 295 317 315 313
343 319 353 330 302 320 339 282 297 310 320 311 294 288 265 267 278 247 237 235 226 229 255 192 240 253 217 196 206 239 218 243 231 257 260 271 271 296 278 311 312 312 307 307 307
314 304 71 56 54 342 340 291 276 326 294 297 290 272 267 256 244 264 242 196 209 242 5 270 254 253 263 316 163 239 240 238 239 244 266 261 279 290 297 307 319 312 314 302 302
11 61 12 346 23 344 303 304 292 304 329 325 281 282 314 266 269 244 238 243 251 226 261 273 252 250 262 272 278 268 261 259 249 256 261 278 287 297 298 319 305 300 296 302 304
341 341 216 347 323 331 292 346 314 341 284 280 278 312 317 279 288 301 295 247 248 267 233 226 264 268 270 266 263 269 267 262 262 265 267 274 280 278 293 300 303 312 310 303 300
58 160 293 126 347 302 340 348 314 331 285 278 330 330 295 284 293 284 285 267 267 275 276 246 247 240 267 268 287 269 264 263 274 273 274 273 296 319 303 318 311 305 303 300 298